sat.trackr.live / text

‹ back to catalog

STARLINK-2711

NORAD 48673 · 2021-044AM

PAYLOAD ACTIVE UNKNOWN

§ Identity

Operator
Country
US
Launch date
2021-05-26
Launch site
AFETR
Launch vehicle
Mass (kg)
RCS (m²)

Purposes: comms

External: N2YO · Heavens-Above · Gunter

§ Orbital elements

Epoch: 2026-09-08T23:35:01.417920Z

Period
94.01 min
Inclination
53.1611°
Eccentricity
0.0001154
Mean motion
15.31712223 rev/d
Perigee alt
469.9 km
Apogee alt
471.5 km
Semi-major
6,848.8 km
B*
1.0429e-4
RAAN
342.4249°
Arg perigee
69.7102°
Mean anomaly
290.4023°
Rev number
29,187

§ Raw data

STARLINK-27111 48673U 21044AM  26251.98265530  .00002874  00000+0  10429-3 0  99922 48673  53.1611 342.4249 0001154  69.7102 290.4023 15.31712223291875

JSON: /api/v1/satellites/48673 · /tle

For live sub-satellite position, see the globe view (requires WebGL).

§ Visibility from observer

Set your observer location to see the next 7 days of passes ≥ 10°. The values pass through the URL so the page stays shareable.

No JS? Fill the form by hand. The geolocation button needs JavaScript.